Location: Bukovany
(49.8234°N, 14.6297°E)
Time: 06:37:33
(UTC+00:00)

CZ-4C R/B - Pass Details

Date: 17 November 2025
Orbit: 487 x 1492 km, 63.4° (Epoch: 10 December)

Event Time Altitude Azimuth Distance (km) Brightness Sun altitude
Rises 16:25:58 0° 263° (W) 2,899 7.0 -11.3°
Reaches altitude 10° 16:28:16 10° 274° (W) 2,112 5.5 -11.7°
Maximum altitude 16:32:32 31° 337° (NNW) 1,370 3.4 -12.3°
Enters shadow 16:37:54 10° 38° (NE) 2,676 4.3 -13.2°
